EW0150 Weather Reports


time (UTC)temp
C
wind
direction
speed
KPH
gust
KPH
rain 1hr
cm
rain 24hr
cm
rain mn
cm
humidity
%
barometer
mb
20260905165003 19 308 12.9 27.4 0.00 0.15 0.15 50 1017.7
20260905164005 19 275 9.7 19.3 0.00 0.15 0.15 50 1017.6
20260905163003 20 267 9.7 17.7 0.00 0.15 0.15 49 1017.6
20260905162006 20 305 11.3 20.9 0.00 0.15 0.15 48 1017.4
20260905161004 20 273 14.5 24.1 0.00 0.15 0.15 46 1017.3
20260905160006 21 283 19.3 32.2 0.00 0.15 0.15 45 1017.1
20260905155005 21 291 16.1 35.4 0.00 0.15 0.15 46 1017.0
20260905154007 21 279 17.7 35.4 0.00 0.15 0.15 47 1016.8
20260905153005 21 302 19.3 30.6 0.00 0.15 0.15 46 1016.8
20260905152007 21 251 16.1 29.0 0.00 0.15 0.15 46 1016.7
20260905151004 21 326 14.5 29.0 0.00 0.15 0.15 50 1016.6
20260905150012 21 336 14.5 29.0 0.00 0.15 0.15 50 1016.5
20260905145005 21 278 16.1 30.6 0.00 0.15 0.15 48 1016.5
20260905144004 22 283 16.1 27.4 0.00 0.15 0.15 47 1016.4
20260905142005 22 328 17.7 29.0 0.00 0.15 0.15 46 1016.3
20260905140008 22 308 17.7 30.6 0.00 0.15 0.15 48 1016.4
20260905135004 22 291 14.5 32.2 0.00 0.15 0.15 49 1016.4
20260905134006 21 312 12.9 24.1 0.00 0.15 0.15 50 1016.5
20260905133004 22 320 16.1 25.7 0.00 0.15 0.15 48 1016.5
20260905132006 22 282 12.9 25.7 0.00 0.15 0.15 51 1016.7
20260905131005 21 276 12.9 19.3 0.00 0.15 0.15 51 1016.7
20260905130009 22 276 17.7 27.4 0.00 0.15 0.15 49 1016.6
20260905125004 22 308 17.7 35.4 0.00 0.15 0.15 49 1016.7
20260905124006 21 278 17.7 35.4 0.00 0.15 0.15 47 1016.7
20260905123005 21 330 16.1 27.4 0.00 0.15 0.15 49 1016.8
20260905122007 21 261 12.9 29.0 0.00 0.15 0.15 50 1016.9
20260905120007 22 257 16.1 29.0 0.00 0.15 0.15 49 1016.8
20260905115006 22 321 12.9 29.0 0.00 0.15 0.15 51 1016.8
20260905114005 22 306 14.5 27.4 0.00 0.15 0.15 51 1016.8
20260905113005 21 304 17.7 35.4 0.00 0.15 0.15 51 1016.8
20260905112005 22 227 16.1 29.0 0.00 0.15 0.15 52 1016.9
20260905111004 22 270 17.7 30.6 0.00 0.15 0.15 53 1016.9
20260905110015 21 267 16.1 29.0 0.00 0.15 0.15 55 1016.9
20260905105005 21 288 20.9 35.4 0.00 0.15 0.15 55 1017.0
20260905104007 20 290 16.1 32.2 0.00 0.15 0.15 57 1016.9
20260905103007 20 286 19.3 35.4 0.00 0.15 0.15 55 1016.9
20260905102006 20 326 17.7 35.4 0.00 0.15 0.15 57 1016.9
20260905101004 20 296 14.5 29.0 0.00 0.15 0.15 56 1017.0
20260905100006 19 294 14.5 20.9 0.00 0.15 0.15 61 1017.0
20260905095006 19 299 12.9 20.9 0.00 0.15 0.15 65 1017.1
20260905093007 18 326 11.3 20.9 0.00 0.15 0.15 69 1017.0
20260905092004 19 240 12.9 22.5 0.00 0.15 0.15 69 1016.9
20260905091005 20 232 12.9 25.7 0.00 0.15 0.15 68 1016.9
20260905090009 19 291 14.5 27.4 0.00 0.15 0.15 67 1017.0
20260905085005 20 277 12.9 25.7 0.00 0.15 0.15 71 1017.1
20260905084006 18 255 12.9 30.6 0.00 0.15 0.15 72 1017.1
20260905081005 17 264 11.3 19.3 0.00 0.15 0.15 76 1016.7
20260905080006 16 229 6.4 12.9 0.00 0.15 0.15 80 1016.8
20260905075008 16 250 6.4 12.9 0.00 0.15 0.15 81 1016.9
20260905074003 15 188 8.0 12.9 0.00 0.15 0.15 83 1016.9
20260905073006 15 227 6.4 12.9 0.00 0.15 0.15 85 1016.8
20260905071008 15 240 6.4 11.3 0.00 0.15 0.15 85 1016.6
20260905070008 15 238 6.4 14.5 0.00 0.15 0.15 86 1016.6
20260905065009 15 250 6.4 11.3 0.00 0.15 0.15 86 1016.6
20260905064005 15 246 4.8 12.9 0.00 0.15 0.15 87 1016.3
20260905063008 15 237 4.8 8.0 0.03 0.15 0.15 89 1016.1
20260905060009 15 228 3.2 9.7 0.10 0.15 0.15 89 1015.8
20260905054005 15 223 8.0 11.3 0.15 0.15 0.15 89 1015.6
20260905053005 15 208 6.4 9.7 0.10 0.10 0.10 88 1015.3
20260905052007 15 261 6.4 14.5 0.08 0.08 0.08 87 1015.3
20260905051005 15 326 9.7 19.3 0.05 0.05 0.05 86 1015.6
20260905050010 15 284 8.0 14.5 0.05 0.05 0.05 86 1015.5
20260905045005 16 290 9.7 17.7 0.03 0.03 0.03 84 1015.3
20260905044008 16 325 8.0 20.9 0.00 0.00 0.00 84 1014.8
20260905042009 16 291 1.6 4.8 0.00 0.00 0.00 85 1014.7
20260905040010 16 291 4.8 9.7 0.00 0.00 0.00 83 1014.6
20260905035005 16 266 6.4 14.5 0.00 0.00 0.00 82 1014.6
20260905034006 16 291 4.8 6.4 0.00 0.00 0.00 86 1014.6
20260905033006 16 344 4.8 6.4 0.00 0.00 0.00 86 1014.3
20260905032005 16 324 3.2 6.4 0.00 0.00 0.00 83 1014.3
20260905031005 16 281 3.2 4.8 0.00 0.00 0.00 81 1013.7
20260905030008 16 281 6.4 12.9 0.00 0.00 0.00 80 1013.5
20260905025008 16 205 4.8 14.5 0.00 0.00 0.00 80 1013.5
20260905024005 17 233 4.8 8.0 0.00 0.00 0.00 79 1013.6
20260905023007 17 287 6.4 12.9 0.00 0.00 0.00 79 1013.8
20260905022005 17 296 6.4 17.7 0.00 0.00 0.00 79 1013.8
20260905021009 17 275 6.4 19.3 0.00 0.00 0.00 79 1013.8
20260905020010 17 337 8.0 17.7 0.00 0.00 0.00 76 1014.0
20260905015005 17 301 8.0 14.5 0.00 0.00 0.00 75 1013.9
20260905014007 17 315 11.3 24.1 0.00 0.00 0.00 74 1013.9
20260905012008 18 298 9.7 20.9 0.00 0.00 0.00 71 1013.2
20260905010008 18 316 12.9 24.1 0.00 0.00 0.00 69 1013.2
20260905005005 18 331 11.3 22.5 0.00 0.00 0.00 68 1013.2
20260905002006 18 331 11.3 19.3 0.00 0.00 0.00 68 1012.8
20260905001005 18 313 9.7 19.3 0.00 0.00 0.00 67 1012.8
20260904234005 18 327 12.9 22.5 0.00 0.00 0.00 66 1012.3
20260904233007 18 319 14.5 24.1 0.00 0.00 0.00 66 1012.3
20260904232005 18 314 11.3 22.5 0.00 0.00 0.00 65 1012.5
20260904231005 18 343 11.3 20.9 0.00 0.00 0.00 65 1012.4
20260904230011 19 336 19.3 29.0 0.00 0.00 0.00 64 1012.2
20260904225006 19 341 16.1 29.0 0.00 0.00 0.00 64 1012.3
20260904223005 20 321 11.3 25.7 0.00 0.00 0.00 66 1011.9
20260904222003 20 318 14.5 25.7 0.00 0.00 0.00 66 1011.4
20260904214005 22 321 17.7 29.0 0.00 0.00 0.00 63 1010.6
20260904213004 23 338 16.1 30.6 0.00 0.00 0.00 61 1010.3
20260904212005 23 223 12.9 24.1 0.00 0.00 0.00 58 1009.1
20260904210006 23 253 14.5 24.1 0.00 0.00 0.00 57 1009.2
20260904205003 23 223 12.9 24.1 0.00 0.00 0.00 57 1009.2
20260904204006 23 232 11.3 20.9 0.00 0.00 0.00 57 1009.2
20260904203006 23 244 8.0 17.7 0.00 0.00 0.00 59 1009.3
20260904201004 22 180 8.0 11.3 0.00 0.00 0.00 61 1009.2
20260904200007 23 180 8.0 14.5 0.00 0.00 0.00 59 1009.4
20260904195003 23 221 9.7 20.9 0.00 0.00 0.00 58 1009.4
20260904193005 23 169 8.0 17.7 0.00 0.00 0.00 59 1009.6
20260904192004 22 215 8.0 12.9 0.00 0.00 0.00 61 1009.6
20260904191003 22 208 8.0 11.3 0.00 0.00 0.00 63 1009.7
20260904190006 22 198 8.0 11.3 0.00 0.00 0.00 65 1009.8
20260904185005 21 187 8.0 9.7 0.00 0.00 0.00 68 1009.9
20260904184003 21 172 6.4 8.0 0.00 0.00 0.00 68 1010.1
20260904183003 22 199 4.8 8.0 0.00 0.00 0.00 65 1010.3
20260904182005 22 207 6.4 8.0 0.00 0.00 0.00 66 1010.4
20260904181004 22 236 4.8 6.4 0.00 0.00 0.00 66 1010.4
20260904180008 22 216 4.8 8.0 0.00 0.00 0.00 65 1010.2
20260904175004 22 223 4.8 8.0 0.00 0.00 0.00 65 1010.1
20260904174005 22 184 4.8 9.7 0.00 0.00 0.00 66 1010.0
20260904173004 22 170 4.8 6.4 0.00 0.00 0.00 64 1009.9
20260904172004 22 191 4.8 8.0 0.00 0.00 0.00 65 1009.8
20260904171004 22 179 6.4 8.0 0.00 0.00 0.00 64 1009.8
20260904170008 23 204 6.4 9.7 0.00 0.00 0.00 63 1009.9